Ypsilanti, MI

7:43 AM EST on December 11, 2016 (GMT -0500)
Willow Run

Weather History for KYIP - February, 2013

Change the Weather History Date:

Monday, February 25, 2013

  Actual Average Record
Temperature  
Mean Temperature 30 °F -  
Max Temperature 42 °F 36 °F 63 °F (1976)
Min Temperature 19 °F 22 °F -2 °F (1950)
Degree Days  
Heating Degree Days 34    
Moisture  
Dew Point 21 °F    
Average Humidity 67    
Maximum Humidity 85    
Minimum Humidity 47    
Precipitation  
Precipitation 0.00 in - - ()
Sea Level Pressure  
Sea Level Pressure 30.18 in    
Wind  
Wind Speed 3 mph (ESE)    
Max Wind Speed 8 mph    
Max Gust Speed -    
Visibility 8 miles    
Events      
Averages and records for this station are not official NWS values.
T = Trace of Precipitation, MM = Missing Value Source: NWS Daily Summary

Daily Weather History Graph

Daily Weather History Graph

Search for Another Location

Airport or City:

Trip Planner

Search our weather history database for the weather conditions in past years. The results will help you decide how hot, cold, wet, or windy it might be!

Date:

Astronomy

Feb. 25, 2013 Rise Set
Actual Time 7:15 AM EST 6:19 PM EST
Civil Twilight 6:47 AM EST 6:47 PM EST
Nautical Twilight 6:14 AM EST 7:20 PM EST
Astronomical Twilight 5:42 AM EST 7:52 PM EST
Moon 6:33 PM EST (2/25) 6:44 AM EST (2/25)
Length of Visible Light 12h 00m
Length of Day
11h 04m
Full, 100% of the Moon is Illuminated
Feb 25
Full
Feb 25
Full
Mar 4
Last Quarter
Mar 11
New
Mar 19
First Quarter

Hourly Weather History & Observations

Time (EST) Temp. Windchill Dew Point Humidity Pressure Visibility Wind Dir Wind Speed Gust Speed Precip Events Conditions
12:53 AM 25.0 °F 20.7 °F 19.9 °F 81% 30.17 in 7.0 mi WSW 3.5 mph - N/A   Scattered Clouds
1:53 AM 25.0 °F - 19.0 °F 78% 30.18 in 6.0 mi Calm Calm - N/A   Haze
2:53 AM 23.0 °F - 18.0 °F 81% 30.18 in 5.0 mi Calm Calm - N/A   Haze
3:53 AM 21.9 °F - 17.1 °F 82% 30.17 in 8.0 mi Calm Calm - N/A   Clear
4:53 AM 21.9 °F - 17.1 °F 82% 30.18 in 8.0 mi Calm Calm - N/A   Clear
5:53 AM 19.9 °F - 16.0 °F 85% 30.19 in 8.0 mi Calm Calm - N/A   Clear
6:53 AM 19.9 °F - 14.0 °F 78% 30.21 in 5.0 mi Calm Calm - N/A   Haze
7:53 AM 19.9 °F - 16.0 °F 85% 30.23 in 5.0 mi Calm Calm - N/A   Clear
8:53 AM 28.9 °F - 25.0 °F 85% 30.24 in 4.0 mi Calm Calm - N/A   Clear
9:53 AM 36.0 °F - 26.1 °F 67% 30.23 in 9.0 mi Calm Calm - N/A   Clear
10:53 AM 39.0 °F - 21.9 °F 50% 30.23 in 10.0 mi Calm Calm - N/A   Clear
11:53 AM 39.9 °F - 21.9 °F 49% 30.23 in 10.0 mi Calm Calm - N/A   Clear
1:53 PM 39.9 °F 35.1 °F 23.0 °F 51% 30.17 in 10.0 mi SE 6.9 mph - N/A   Scattered Clouds
2:53 PM 42.1 °F 38.4 °F 24.1 °F 49% 30.16 in 10.0 mi East 5.8 mph - N/A   Partly Cloudy
3:53 PM 42.1 °F 37.1 °F 23.0 °F 47% 30.17 in 10.0 mi SSE 8.1 mph - N/A   Clear
4:53 PM 41.0 °F 37.1 °F 23.0 °F 49% 30.16 in 8.0 mi SE 5.8 mph - N/A   Clear
5:53 PM 37.0 °F 31.0 °F 24.1 °F 59% 30.15 in 6.0 mi SSE 8.1 mph - N/A   Haze
6:53 PM 33.1 °F 26.9 °F 23.0 °F 66% 30.17 in 10.0 mi SE 6.9 mph - N/A   Clear
7:53 PM 30.9 °F 25.2 °F 21.0 °F 67% 30.18 in 10.0 mi ESE 5.8 mph - N/A   Clear
8:53 PM 30.9 °F 24.3 °F 21.9 °F 69% 30.14 in 10.0 mi East 6.9 mph - N/A   Clear
9:53 PM 32.0 °F 24.8 °F 21.0 °F 64% 30.11 in 10.0 mi East 8.1 mph - N/A   Clear
10:53 PM 30.9 °F 23.5 °F 19.9 °F 64% 30.13 in 10.0 mi East 8.1 mph - N/A   Clear
11:53 PM 30.9 °F 23.5 °F 19.0 °F 61% 30.13 in 10.0 mi East 8.1 mph - N/A   Clear